Regional Weather Roundup
Issued by NWS Upton, NY

Current Version | Previous Version | Text Only | Print | Product List | Glossary On
Versions: 1 2 3 4 5 6 7 8 9 10 11 12 13 14 15 16 17 18 19 20 21 22 23 24 25 26 27
000
ASUS41 KOKX 241605
RWROKX

Regional Weather Roundup
National Weather Service New York NY
1200 PM EDT TUE APR 24 2018

Note: "FAIR" indicates few or no clouds below 12,000 feet with no
significant weather and/or obstructions to visibility.

NYZ071-072-176-178-NJZ106-104-241700-
New York City Metro Area

CITY           SKY/WX    TMP DP  RH WIND       PRES   REMARKS
Central Park   FAIR      64  37  36 VRB5      30.40F
Bronx Bot Gard   N/A     61  36  39 S8        30.39F
Bronx Lehman C   N/A     61  36  39 S12         N/A
LaGuardia Arpt PTSUNNY   62  37  39 SE13G20   30.37F
Queens College   N/A     61  37  41 S15         N/A
Kennedy Intl   PTSUNNY   60  42  51 S15       30.40F
Breezy Point     N/A     52 N/A N/A SE6         N/A
Brooklyn Coll    N/A     57  39  51 SE15        N/A
Staten Island    N/A     59  39  47 SE10        N/A
Newark/Liberty PTSUNNY   63  37  38 SE10      30.37F
Teterboro      FAIR      63  39  41 S13       30.36F
$$

NYZ177-179-078>081-241700-
Long Island New York

CITY           SKY/WX    TMP DP  RH WIND       PRES   REMARKS
Jones Beach      N/A     52 N/A N/A S10         N/A
Wantagh          N/A     59  43  55 SE15        N/A
Hempstead        N/A     61  39  44 SE12      30.41F
Matinecock Pt    N/A     46 N/A N/A NE8         N/A
Farmingdale    FAIR      61  40  45 S17       30.39F
MacArthur/ISP  PTSUNNY   62  39  42 S12       30.39F
Stony Brook      N/A     63  32  31 S7          N/A
Shirley        FAIR      59  43  55 SE15      30.40F
Mt Sinai Harb    N/A    N/A N/A N/A N5          N/A
Westhampton    FAIR      61  41  47 S12G20    30.42F
East Hampton   FAIR      58  43  58 S7        30.40F
Southold         N/A     59  41  51 S13         N/A
Montauk          N/A     59  46  62 VRB6      30.42F
$$

NYZ052-065-067-241700-
Hudson Valley

CITY           SKY/WX    TMP DP  RH WIND       PRES   REMARKS
White Plains   FAIR      60  32  34 SE12G17   30.37F
Larchmont Harb   N/A     46 N/A N/A NE8         N/A
Croton On Huds   N/A     59 N/A N/A SE6G13      N/A
Somers           N/A     61  36  39 S7          N/A
Brewster         N/A     61  32  33 S7          N/A
Newburgh       MOSUNNY   63  34  34 S14       30.35F
Montgomery     FAIR      63  34  33 SW15G22   30.33F
Otisville        N/A     61  34  36 S12         N/A
Warwick          N/A     59  37  44 S9          N/A
Suffern          N/A     59  36  41 S8          N/A
Poughkeepsie   FAIR      62  29  28 S12G26    30.34F
Albany         FAIR      65  26  23 S10G17    30.31F
$$

NJZ001-105-106-008-010-013-015-019>022-104-241700-
New Jersey

CITY           SKY/WX    TMP DP  RH WIND       PRES   REMARKS
Newark/Liberty PTSUNNY   63  37  38 SE10      30.37F
Teterboro      FAIR      63  39  41 S13       30.36F
Caldwell       FAIR      62  37  39 S13G21    30.36F
Somerville     FAIR      66  44  45 SE8G18    30.32F
Linden         NOT AVBL
Perth Amboy      N/A     59 N/A N/A SE9         N/A
Sussex         FAIR      63  38  39 S10G18    30.33F
Andover          N/A     62  37  39 S9        30.33F
Trenton        FAIR      64  42  44 S15G23    30.33F
Millville      CLOUDY    62  44  51 SE16G25   30.32F
Atlantic City  FAIR      60  46  59 E15G30    30.35F
Wrightstown    PTSUNNY   64  41  42 SE15G22   30.31F
Toms River     FAIR      64  44  48 SE16G24   30.36F
Belmar         CLOUDY    62  35  36 SE13G23   30.38F
$$

PAZ047>061-062-071-241700-
Eastern Pennsylvania

CITY           SKY/WX    TMP DP  RH WIND       PRES   REMARKS
Philadelphia   CLOUDY    63  43  48 SE10G21   30.33F
Allentown      FAIR      65  42  43 SE14G22   30.31F
Scranton       FAIR      63  33  32 VRB6G17   30.28F
$$

CTZ002-004>006-009-010-012-RIZ004-006-007-MAZ004-011-015-241700-
Southern New England

 In CT

CITY           SKY/WX    TMP DP  RH WIND       PRES   REMARKS
Bradley Intl   PTSUNNY   65  28  24 S14G20    30.36F
Hartford       FAIR      63  33  32 SW9G17    30.37F
Danbury        FAIR      60  31  33 S9G21     30.37F
Wtrbury/Oxford FAIR      60  32  34 S12       30.37F
Norwalk Harbor   N/A     46 N/A N/A E7          N/A
Bridgeport     FAIR      54  43  66 E6        30.39F
Meriden        FAIR      61  31  32 S12G22    30.38F
New Haven      FAIR      60  42  51 SE8       30.39F
Chester        FAIR      61  34  36 S13       30.39F
Groton         FAIR      56  44  64 S9        30.40F
Willimantic    FAIR      64  28  25 S14G20    30.38F

 In RI

CITY           SKY/WX    TMP DP  RH WIND       PRES   REMARKS
Providence     PTSUNNY   61  42  49 S17       30.39F
Block Island   FAIR      56  45  66 S13       30.42F
Westerly       FAIR      58  41  53 S10       30.42F

In MA

CITY           SKY/WX    TMP DP  RH WIND       PRES   REMARKS
Boston         FAIR      65  27  23 SW13      30.36F
Worcester      FAIR      60  26  27 SW14      30.35F
Westfield      FAIR      65  27  23 S12       30.35F
Provincetown   FAIR      57  38  48 S15G22    30.41
Nantucket      FAIR      52  45  77 S10       30.44F
$$

ANZ330-335-338-340-345-350-353-355-241700-
Coastal Marine Observations


STATION/POSITION TIME  SKY/WX   TEMP    WIND        PRES    VSBY  WAVE
                                AIR SEA DIR/SP/G                  HT/PER
                 (UTC)          (F)     (DEG/KT/KT) (MB)    (MI)  (FT/S)
NY Harb Entrance 1550            50 47  140/ 10/ 12 1029.0          1/ 8
20 S Fire Island 1550            49 45  130/  6/  8 1029.3          1/ 8
23 SSW Montauk P 1550            48 45  150/  8/  8 1030.1          1/ 8
15 E Barnegat Li 1530               46                N/A           2/ 8
Hudson Canyon    1550            50 47  100/  8/  8 1028.8          2/ 8
Kings Point      1548               47                N/A
Execution Rocks  NOT AVBL
Western LI Sound NOT AVBL
Central LI Sound 1545            46      60/  6/  6   N/A           0
Robbins Reef     1548            53     180/ 12/ 13 1029.5
$$


>>>>>>>>>>>>>>>>>>>>>>>>>>>> KEY <<<<<<<<<<<<<<<<<<<<<<<<<<<
>                                                          <
>     SKY/WX - Sky Condition/Present Weather               <
>     TMP    - Temperature in Fahrenheit                   <
>     DP     - Dew Point in Fahrenheit                     <
>     RH     - Relative Humidity in Percent                <
>     WIND   - Direction (from) and Speed in MPH           <
>     PRES   - Mean Sea Level Pressure (inches of Hg)      <
>     WCI    - Wind Chill Index                            <
>     VSB    - Visibility in Miles                         <
>     HX     - Heat Index                                  <
>     TC     - Temperature in Celsius                      <
>     VRB    - Varibale Wind Direction                     <
>                                                          <
>>>>>>>>>>>>>>>>>>>>>>>>>>>> KEY <<<<<<<<<<<<<<<<<<<<<<<<<<<




USA.gov is the U.S. government's official web portal to all federal, state and local government web resources and services.